MONITOR-2 (RS39S)

Last updated on Thu Oct 30 2025 00:03:10 GMT+0000 (Coordinated Universal Time)

1 57184U 23091U 25302.54135544 .00007143 00000+0 37490-3 0 9993 2 57184 97.5434 357.2945 0011749 186.3830 173.7255 15.15984149128979
UTC large
Height (km)
Speed (km/s)
/
Latitude / Longitude
Inclination (degrees)
Orbital Period (minutes)
Azimuth
Elevation
Range (km)
Doppler Factor

Next 0 passes for location: London (51.5072 / 0.1276)

Sorry there are no passes over London.